Location: Anaheim
(33.8350°N, 117.9140°W)
Time: 17:51:12
(UTC-07:00)

Amateur Radio Satellites - All Passes

Search period start: 26 July 2017 17:21
Search period end: 27 July 2017 17:21
Location: Anaheim, 33.8350°N, 117.9140°W

Satellite Date Start Highest point End Downlink Frequencies (MHz)
Time Altitude Azimuth
XW-2C 26 Jul 17:27:01 17:29:29 17° 70° (ENE) 17:31:57 145.795 - 145.815
NO-84 26 Jul 17:27:47 17:30:55 23° 40° (NE) 17:34:13 435.350 FM
NUDT-PHONESAT 26 Jul 17:28:36 17:30:10 12° 69° (ENE) 17:31:42 437.300
HO-68 26 Jul 17:33:01 17:34:57 11° 56° (NE) 17:36:53 435.675
DOVE 4 26 Jul 17:34:33 17:39:22 74° 76° (ENE) 17:44:29 437.250
KAITUO 1B 26 Jul 17:44:18 17:47:05 21° 71° (ENE) 17:49:52 145.475/437.950
LilacSat-2 26 Jul 17:51:19 17:54:49 38° 74° (ENE) 17:58:19 437.200
XW-2F 26 Jul 18:02:08 18:05:43 46° 75° (ENE) 18:09:18 145.980 - 146.000
CUTE-I 26 Jul 18:02:48 18:07:57 50° 73° (ENE) 18:13:08 437.470
YUBILEINY 26 Jul 18:04:34 18:12:29 38° 87° (E) 18:20:23 435.215
KKS-1 26 Jul 18:15:02 18:19:16 43° 287° (WNW) 18:23:28 437.445
CUTE 1.7 + AOD 2 26 Jul 18:26:54 18:29:18 15° 68° (ENE) 18:31:41 437.475
CUBESAT XI-V 26 Jul 18:27:18 18:30:29 18° 292° (WNW) 18:33:40 437.345
XW-2D 26 Jul 18:32:07 18:35:48 56° 260° (W) 18:39:29 145.860 - 145.880
SEEDS 26 Jul 18:36:40 18:38:03 11° 67° (ENE) 18:39:26 437.485
STARS 26 Jul 18:39:33 18:43:53 57° 285° (WNW) 18:48:10 437.465
XW-2B 26 Jul 18:42:22 18:45:56 42° 261° (W) 18:49:31 145.730 - 145.750
XW-2C 26 Jul 19:00:22 19:03:27 24° 263° (W) 19:06:32 145.795 - 145.815
NUDT-PHONESAT 26 Jul 19:00:23 19:03:42 32° 262° (W) 19:07:02 437.300
NO-84 26 Jul 19:04:45 19:08:29 38° 233° (SW) 19:12:25 435.350 FM
AAUSAT CUBESAT 2 26 Jul 19:13:49 19:15:58 14° 68° (ENE) 19:18:06 437.432
HO-68 26 Jul 19:14:17 19:21:26 73° 72° (ENE) 19:28:35 435.675
KAITUO 1B 26 Jul 19:18:19 19:20:57 19° 264° (W) 19:23:37 145.475/437.950
UWE-3 26 Jul 19:18:35 19:21:47 19° 69° (ENE) 19:24:56 435.000/436.395/437.385
RS-15 26 Jul 19:19:45 19:26:50 16° 337° (NNW) 19:33:55 29.354- 29.394
Tancredo 1 26 Jul 19:21:56 19:24:47 53° 319° (NW) 19:27:40 437.200
ISS 26 Jul 19:25:35 19:28:38 39° 132° (SE) 19:31:42 437.550
LilacSat-2 26 Jul 19:28:28 19:29:13 10° 267° (W) 19:29:58 437.200
ZACube-1 26 Jul 19:29:27 19:31:24 13° 67° (ENE) 19:33:21 437.345
CUTE-I 26 Jul 19:44:49 19:48:12 17° 266° (W) 19:51:36 437.470
XW-2A 26 Jul 19:48:37 19:51:59 81° 258° (WSW) 19:55:22 145.665 - 145.685
Oscar 11 26 Jul 19:51:41 19:54:05 15° 68° (ENE) 19:56:30 .
CUBEBUG 2 26 Jul 19:59:08 20:03:51 83° 259° (WSW) 20:08:29 437.445
CUTE 1.7 + AOD 2 26 Jul 20:00:56 20:04:47 35° 262° (W) 20:08:39 437.475
YUBILEINY 26 Jul 20:01:00 20:09:06 40° 284° (WNW) 20:17:16 435.215
nSIGHT-1 26 Jul 20:05:52 20:09:02 59° 318° (NW) 20:12:13 .
AO-73 26 Jul 20:06:21 20:10:13 30° 73° (ENE) 20:14:01 145.935
SEEDS 26 Jul 20:09:17 20:13:16 46° 261° (W) 20:17:17 437.485
STRAND 1 26 Jul 20:21:58 20:27:05 89° 96° (E) 20:32:10 437.568
AAUSAT CUBESAT 2 26 Jul 20:47:15 20:51:02 37° 262° (W) 20:54:52 437.432
UWE-3 26 Jul 20:53:49 20:57:58 33° 262° (W) 21:02:03 435.000/436.395/437.385
BEESAT 3 26 Jul 21:01:24 21:04:52 28° 55° (NE) 21:08:15 437.485
ISS 26 Jul 21:02:56 21:05:14 18° 327° (NNW) 21:07:32 437.550
ZACube-1 26 Jul 21:02:56 21:07:15 48° 261° (W) 21:11:29 437.345
HO-68 26 Jul 21:05:19 21:09:39 17° 267° (W) 21:14:00 435.675
AO-85 26 Jul 21:22:55 21:27:07 53° 59° (ENE) 21:31:38 145.980
Oscar 11 26 Jul 21:25:51 21:29:51 38° 261° (W) 21:33:52 .
EO-88 26 Jul 21:30:17 21:33:21 27° 73° (ENE) 21:36:27 145.990 - 145.960
DELFI C3 26 Jul 21:31:37 21:35:24 50° 75° (ENE) 21:39:14 145.870
JUGNU 26 Jul 21:38:01 21:40:40 13° 165° (SSE) 21:43:18 437.505
FO-29 26 Jul 21:41:04 21:47:06 33° 95° (E) 21:52:30 435.910
RS-15 26 Jul 21:41:34 21:47:11 14° 16° (NNE) 21:52:42 29.354- 29.394
AO-73 26 Jul 21:43:18 21:46:25 19° 265° (W) 21:49:31 145.935
BEESAT 2 26 Jul 21:45:39 21:49:12 28° 56° (NE) 21:52:41 435.950
UNISAT 6 26 Jul 22:19:23 22:23:21 35° 98° (E) 22:27:15 437.425
M-CUBED/EXP-1 PRIME 26 Jul 22:26:30 22:28:43 13° 97° (E) 22:30:55 437.505
BEESAT 3 26 Jul 22:39:24 22:42:12 19° 250° (WSW) 22:44:58 437.485
ESTCUBE 1 26 Jul 22:50:46 22:54:19 24° 70° (ENE) 22:57:52 437.505/2401.250
LO-87 26 Jul 23:00:46 23:04:15 48° 76° (ENE) 23:07:46 145.935 - 145.965
TIGRISAT 26 Jul 23:02:49 23:07:05 71° 283° (WNW) 23:11:17 435.000
EO-88 26 Jul 23:05:05 23:07:01 14° 266° (W) 23:08:58 145.990 - 145.960
AO-85 26 Jul 23:05:18 23:07:09 12° 251° (WSW) 23:09:03 145.980
PRISM 26 Jul 23:15:04 23:19:09 55° 285° (WNW) 23:23:12 437.425
BEESAT 2 26 Jul 23:23:49 23:26:43 19° 250° (WSW) 23:29:36 435.950
JUGNU 26 Jul 23:24:46 23:28:59 20° 175° (S) 23:33:13 437.505
FO-29 26 Jul 23:25:59 23:32:02 34° 293° (WNW) 23:37:28 435.910
VELOX 1 26 Jul 23:29:09 23:31:05 13° 66° (ENE) 23:33:02 145.980
AIST 2D 26 Jul 23:34:00 23:36:59 26° 97° (E) 23:39:57 435.315
DUCHIFAT 1 26 Jul 23:49:52 23:51:54 13° 93° (E) 23:53:57 145.980
RS-15 26 Jul 23:53:35 00:04:41 39° 48° (NE) 00:15:12 29.354- 29.394
POLYITAN 1 26 Jul 23:54:36 23:57:44 20° 95° (E) 00:00:50 437.675
UNISAT 6 26 Jul 23:57:11 23:59:43 15° 292° (WNW) 00:02:13 437.425
M-CUBED/EXP-1 PRIME 26 Jul 23:58:46 00:03:18 53° 290° (WNW) 00:07:48 437.505
SPROUT 27 Jul 00:01:53 00:05:48 35° 72° (ENE) 00:09:42 437.525
QB50P2 27 Jul 00:07:15 00:11:02 32° 98° (E) 00:14:47 145.880/145.840
NANOSAT C BR1 27 Jul 00:17:07 00:20:56 34° 98° (E) 00:24:43 145.865
O/OREOS (USA 219) 27 Jul 00:18:03 00:21:18 19° 62° (ENE) 00:24:33 437.305
EO-79 27 Jul 00:18:22 00:22:20 40° 99° (E) 00:26:16 145.935-145.965
ESTCUBE 1 27 Jul 00:27:16 00:30:58 25° 264° (W) 00:34:41 437.505/2401.250
SRMSAT 27 Jul 00:31:05 00:33:54 14° 166° (SSE) 00:36:43 437.500
DX 1 27 Jul 01:01:24 01:05:30 42° 73° (ENE) 01:09:38 434.975-435.025
VELOX 1 27 Jul 01:02:46 01:07:02 49° 260° (W) 01:11:22 145.980
AIST 2D 27 Jul 01:08:10 01:09:54 13° 290° (WNW) 01:11:38 435.315
JUGNU 27 Jul 01:13:10 01:17:21 20° 185° (S) 01:21:33 437.505
50 SAT 27 Jul 01:17:02 01:20:25 75° 259° (W) 01:23:49 437.505
DUCHIFAT 1 27 Jul 01:23:49 01:27:41 37° 287° (WNW) 01:31:31 145.980
Gurwin Techsat 1B 27 Jul 01:29:13 01:31:49 14° 92° (E) 01:34:25 435.225
POLYITAN 1 27 Jul 01:29:58 01:33:26 25° 289° (WNW) 01:36:52 437.675
SPROUT 27 Jul 01:39:09 01:41:45 16° 266° (W) 01:44:21 437.525
UKube-1 27 Jul 01:39:18 01:43:35 78° 77° (ENE) 01:47:56 .
BUGSAT 1 27 Jul 01:43:40 01:47:46 88° 283° (WNW) 01:51:47 437.445
QB50P2 27 Jul 01:43:50 01:46:31 17° 292° (WNW) 01:49:11 145.880/145.840
Tancredo 1 27 Jul 01:48:43 01:51:00 20° 35° (NE) 01:53:18 437.200
NANOSAT C BR1 27 Jul 01:53:48 01:56:19 16° 292° (WNW) 01:58:48 145.865
EO-79 27 Jul 01:55:35 01:57:42 14° 293° (WNW) 01:59:47 145.935-145.965
O/OREOS (USA 219) 27 Jul 01:56:44 02:00:44 32° 256° (WSW) 02:04:44 437.305
ISS 27 Jul 01:57:42 01:58:56 12° 28° (NNE) 02:00:10 437.550
RS-15 27 Jul 02:06:02 02:17:35 59° 249° (WSW) 02:28:32 29.354- 29.394
SRMSAT 27 Jul 02:18:10 02:22:23 20° 176° (S) 02:26:35 437.500
Oscar 19 27 Jul 02:23:02 02:28:13 84° 102° (ESE) 02:33:25 437.125/150
BEESAT 27 Jul 02:27:04 02:30:52 24° 69° (ENE) 02:34:41 436.000
nSIGHT-1 27 Jul 02:36:43 02:39:24 24° 36° (NE) 02:42:05 .
DX 1 27 Jul 02:39:43 02:41:50 13° 266° (W) 02:43:58 434.975-435.025
ITUPSAT 1 27 Jul 02:41:16 02:45:33 33° 71° (ENE) 02:49:49 437.325
JUGNU 27 Jul 03:03:16 03:05:40 12° 195° (SSW) 03:08:05 437.505
Gurwin Techsat 1B 27 Jul 03:06:51 03:12:05 59° 286° (WNW) 03:17:17 435.225
MOZHAYETS 4 27 Jul 03:07:36 03:11:58 46° 74° (ENE) 03:16:21
Tancredo 1 27 Jul 03:23:53 03:26:22 24° 230° (SW) 03:28:51 437.200
ISS 27 Jul 03:32:32 03:35:47 85° 224° (SW) 03:39:02 437.550
CUBESAT XI-V 27 Jul 03:49:01 03:52:37 23° 70° (ENE) 03:56:14 437.345
PCSat 27 Jul 03:53:15 03:58:01 33° 108° (ESE) 04:02:49 145.827
BEESAT 27 Jul 04:04:22 04:08:28 28° 263° (W) 04:12:35 436.000
SRMSAT 27 Jul 04:06:49 04:10:54 19° 186° (S) 04:14:57 437.500
nSIGHT-1 27 Jul 04:13:02 04:15:44 25° 230° (SW) 04:18:27 .
AO-7 27 Jul 04:17:58 04:26:18 68° 105° (ESE) 04:34:33 .
ITAMSAT 1 27 Jul 04:19:27 04:24:40 76° 102° (ESE) 04:29:49 435.822/435.867
ITUPSAT 1 27 Jul 04:19:51 04:23:22 20° 265° (W) 04:26:55 437.325
YUBILEINY 27 Jul 04:21:43 04:25:55 14° 66° (ENE) 04:30:03 435.215
MOZHAYETS 4 27 Jul 04:47:07 04:49:18 13° 267° (W) 04:51:29
KKS-1 27 Jul 05:08:31 05:12:59 79° 258° (WSW) 05:17:29 437.445
CUBESAT XI-V 27 Jul 05:25:56 05:29:49 27° 264° (W) 05:33:44 437.345
STARS 27 Jul 05:31:41 05:36:05 75° 76° (ENE) 05:40:31 437.465
PCSat 27 Jul 05:36:42 05:41:21 29° 304° (NW) 05:46:02 145.827
DOVE 4 27 Jul 05:37:58 05:42:27 29° 95° (E) 05:46:45 437.250
SRMSAT 27 Jul 05:57:20 05:59:20 12° 196° (SSW) 06:01:21 437.500
SO-50 27 Jul 06:01:20 06:05:50 66° 301° (WNW) 06:10:20 436.795
ITAMSAT 1 27 Jul 06:01:53 06:03:25 11° 298° (WNW) 06:04:57 435.822/435.867
XW-2D 27 Jul 06:09:04 06:11:44 18° 95° (E) 06:14:23 145.860 - 145.880
AO-7 27 Jul 06:12:01 06:18:19 25° 301° (WNW) 06:24:36 .
YUBILEINY 27 Jul 06:15:09 06:23:57 86° 85° (E) 06:32:39 435.215
XW-2B 27 Jul 06:18:51 06:21:55 23° 96° (E) 06:24:59 145.730 - 145.750
CUTE-I 27 Jul 06:24:15 06:28:44 27° 96° (E) 06:33:12 437.470
NUDT-PHONESAT 27 Jul 06:34:18 06:37:28 27° 97° (E) 06:40:37 437.300
XW-2C 27 Jul 06:35:53 06:39:28 40° 99° (E) 06:43:03 145.795 - 145.815
HO-68 27 Jul 06:48:34 06:52:38 16° 93° (E) 06:56:42 435.675
KAITUO 1B 27 Jul 06:51:54 06:55:32 50° 100° (E) 06:59:10 145.475/437.950
LilacSat-2 27 Jul 07:01:55 07:05:43 77° 283° (WNW) 07:09:30 437.200
XW-2F 27 Jul 07:11:39 07:15:23 64° 283° (WNW) 07:19:05 145.980 - 146.000
DOVE 4 27 Jul 07:15:38 07:19:57 27° 291° (WNW) 07:24:07 437.250
STRAND 1 27 Jul 07:33:42 07:38:51 85° 75° (ENE) 07:44:01 437.568
XW-2D 27 Jul 07:42:50 07:45:48 22° 288° (WNW) 07:48:47 145.860 - 145.880
CUTE 1.7 + AOD 2 27 Jul 07:49:05 07:53:12 48° 99° (E) 07:57:20 437.475
FO-29 27 Jul 07:50:57 07:54:06 13° 57° (ENE) 07:57:17 435.910
XW-2B 27 Jul 07:53:20 07:55:54 18° 290° (WNW) 07:58:28 145.730 - 145.750
CUBEBUG 2 27 Jul 07:54:36 07:58:06 25° 96° (E) 08:01:32 437.445
SEEDS 27 Jul 07:56:42 08:00:36 35° 98° (E) 08:04:29 437.485
CUTE-I 27 Jul 08:04:03 08:08:42 31° 291° (WNW) 08:13:20 437.470
NUDT-PHONESAT 27 Jul 08:08:59 08:11:05 15° 290° (WNW) 08:13:11 437.300
XW-2C 27 Jul 08:12:28 08:13:14 10° 292° (WNW) 08:13:59 145.795 - 145.815
YUBILEINY 27 Jul 08:14:59 08:19:28 15° 281° (W) 08:23:58 435.215
AAUSAT CUBESAT 2 27 Jul 08:32:43 08:36:41 41° 98° (E) 08:40:39 437.432
HO-68 27 Jul 08:33:46 08:40:55 76° 287° (WNW) 08:48:01 435.675
XW-2A 27 Jul 08:46:43 08:49:51 40° 285° (WNW) 08:53:00 145.665 - 145.685
UWE-3 27 Jul 08:46:51 08:50:59 64° 101° (E) 08:55:04 435.000/436.395/437.385
ZACube-1 27 Jul 08:55:02 08:58:56 40° 99° (E) 09:02:49 437.345
UNISAT 6 27 Jul 09:14:33 09:18:04 22° 70° (ENE) 09:21:34 437.425
Oscar 11 27 Jul 09:16:28 09:20:39 49° 99° (E) 09:24:50 .
CUTE 1.7 + AOD 2 27 Jul 09:27:02 09:28:34 12° 293° (WNW) 09:30:06 437.475
FO-29 27 Jul 09:30:11 09:37:43 73° 74° (ENE) 09:45:34 435.910
CUBEBUG 2 27 Jul 09:31:28 09:34:32 20° 290° (WNW) 09:37:34 437.445
SEEDS 27 Jul 09:33:27 09:35:56 15° 292° (WNW) 09:38:27 437.485
AO-73 27 Jul 09:33:31 09:37:38 72° 284° (WNW) 09:41:44 145.935
TIGRISAT 27 Jul 09:56:50 10:01:25 61° 75° (ENE) 10:05:55 435.000
PRISM 27 Jul 09:59:58 10:03:58 57° 75° (ENE) 10:08:01 437.425
AAUSAT CUBESAT 2 27 Jul 10:09:47 10:11:43 13° 292° (WNW) 10:13:40 437.432
NO-84 27 Jul 10:18:46 10:21:36 47° 315° (NW) 10:24:36 435.350 FM
HO-68 27 Jul 10:25:10 10:27:25 12° 304° (NW) 10:29:41 435.675
ZACube-1 27 Jul 10:32:55 10:34:49 13° 292° (WNW) 10:36:43 437.345
EO-88 27 Jul 10:35:32 10:39:08 62° 100° (E) 10:42:45 145.990 - 145.960
M-CUBED/EXP-1 PRIME 27 Jul 10:40:54 10:44:30 80° 256° (WSW) 10:48:25 437.505
DELFI C3 27 Jul 10:46:45 10:50:39 53° 285° (WNW) 10:54:33 145.870
BEESAT 3 27 Jul 10:49:25 10:50:46 11° 108° (ESE) 10:52:08 437.485
UNISAT 6 27 Jul 10:50:30 10:54:34 30° 263° (W) 10:58:35 437.425
Oscar 11 27 Jul 10:54:39 10:56:19 12° 293° (WNW) 10:57:57 .
QB50P2 27 Jul 10:57:00 10:59:33 16° 68° (ENE) 11:02:06 145.880/145.840
NANOSAT C BR1 27 Jul 11:06:15 11:08:54 16° 68° (ENE) 11:11:31 145.865
EO-79 27 Jul 11:07:34 11:10:34 19° 69° (ENE) 11:13:34 145.935-145.965
FO-29 27 Jul 11:17:59 11:23:14 20° 269° (W) 11:28:39 435.910
AO-85 27 Jul 11:34:08 11:37:57 40° 115° (ESE) 11:41:39 145.980
BEESAT 2 27 Jul 11:35:06 11:36:39 12° 108° (ESE) 11:38:12 435.950
AIST 2D 27 Jul 11:36:43 11:40:11 69° 259° (W) 11:43:39 435.315
TIGRISAT 27 Jul 11:37:46 11:38:21 10° 268° (W) 11:38:55 435.000
LO-87 27 Jul 12:04:33 12:08:08 74° 282° (WNW) 12:11:40 145.935 - 145.965
DUCHIFAT 1 27 Jul 12:10:50 12:15:05 88° 72° (ENE) 12:19:19 145.980
POLYITAN 1 27 Jul 12:17:30 12:21:43 59° 259° (W) 12:25:56 437.675
ESTCUBE 1 27 Jul 12:22:27 12:27:00 88° 108° (ESE) 12:31:31 437.505/2401.250
BEESAT 3 27 Jul 12:24:04 12:27:53 45° 302° (WNW) 12:31:45 437.485
BUGSAT 1 27 Jul 12:29:10 12:33:03 36° 73° (ENE) 12:36:56 437.445
QB50P2 27 Jul 12:31:04 12:35:00 36° 262° (W) 12:38:56 145.880/145.840
NANOSAT C BR1 27 Jul 12:40:25 12:44:16 34° 262° (W) 12:48:09 145.865
EO-79 27 Jul 12:42:22 12:46:05 29° 263° (W) 12:49:49 145.935-145.965
PCSat 27 Jul 12:46:17 12:48:50 13° 49° (NE) 12:51:23 145.827
Gurwin Techsat 1B 27 Jul 12:46:33 12:49:44 16° 65° (ENE) 12:52:55 435.225
VELOX 1 27 Jul 12:56:30 13:00:42 40° 99° (E) 13:04:53 145.980
BEESAT 2 27 Jul 13:10:09 13:13:56 43° 302° (WNW) 13:17:48 435.950
AO-85 27 Jul 13:16:19 13:18:28 14° 309° (NW) 13:20:36 145.980
SPROUT 27 Jul 13:26:36 13:30:50 69° 283° (WNW) 13:35:02 437.525
AO-7 27 Jul 13:26:40 13:29:20 12° 51° (NE) 13:32:00 .
UKube-1 27 Jul 13:31:12 13:34:04 17° 95° (E) 13:36:55 .
Oscar 19 27 Jul 13:35:53 13:41:00 81° 76° (ENE) 13:46:08 437.125/150
BUGSAT 1 27 Jul 14:06:05 14:08:28 15° 266° (W) 14:10:51 437.445
RS-15 27 Jul 14:11:59 14:22:15 34° 104° (ESE) 14:32:41 29.354- 29.394
50 SAT 27 Jul 14:15:17 14:18:32 40° 286° (WNW) 14:21:44 437.505
Gurwin Techsat 1B 27 Jul 14:23:59 14:29:10 54° 259° (W) 14:34:23 435.225
O/OREOS (USA 219) 27 Jul 14:25:35 14:29:50 44° 105° (ESE) 14:34:05 437.305
PCSat 27 Jul 14:27:25 14:32:52 81° 246° (WSW) 14:38:15 145.827
DX 1 27 Jul 14:29:05 14:33:24 57° 285° (WNW) 14:37:40 434.975-435.025
VELOX 1 27 Jul 14:34:09 14:36:46 15° 293° (WNW) 14:39:22 145.980
SO-50 27 Jul 14:36:16 14:40:28 36° 56° (NE) 14:44:42 436.795
ITUPSAT 1 27 Jul 14:47:51 14:49:15 11° 92° (E) 14:50:38 437.325
UKube-1 27 Jul 15:06:14 15:10:06 32° 289° (WNW) 15:13:57 .
MOZHAYETS 4 27 Jul 15:07:48 15:10:19 15° 93° (E) 15:12:49
AO-7 27 Jul 15:12:16 15:20:30 66° 69° (ENE) 15:28:45 .
ITAMSAT 1 27 Jul 15:33:21 15:38:34 78° 76° (ENE) 15:43:49 435.822/435.867
O/OREOS (USA 219) 27 Jul 16:06:57 16:09:26 15° 300° (WNW) 16:11:55 437.305
BEESAT 27 Jul 16:07:25 16:12:11 84° 285° (WNW) 16:16:55 436.000
SO-50 27 Jul 16:17:24 16:20:39 19° 250° (WSW) 16:23:55 436.795
RS-15 27 Jul 16:21:55 16:33:56 64° 303° (WNW) 16:46:14 29.354- 29.394
ITUPSAT 1 27 Jul 16:22:42 16:27:22 59° 286° (WNW) 16:32:01 437.325
DOVE 4 27 Jul 16:39:38 16:43:08 20° 67° (ENE) 16:46:47 437.250
MOZHAYETS 4 27 Jul 16:43:18 16:47:35 42° 287° (WNW) 16:51:53
NO-84 27 Jul 16:54:57 16:57:42 18° 38° (NE) 17:00:34 435.350 FM
KKS-1 27 Jul 17:03:46 17:07:31 26° 97° (E) 17:11:13 437.445
AO-7 27 Jul 17:07:25 17:13:40 23° 264° (W) 17:19:58 .
XW-2C 27 Jul 17:15:22 17:16:46 12° 68° (ENE) 17:18:09 145.795 - 145.815
